Terug naar catalogus

QIANFAN-60

ActiefCommunicatiePO
NORAD 62790·PAYLOAD·🇨🇳 China

Gelanceerd Jan 23, 2025 vanaf Taiyuan Satellite Launch Center

Loading…

Volgende Passages (komende 24 uur)

TLE

VersSource: Space-Track

Epoch: Sep 14, 2026, 14:10 UTC

1 62790U 25016F   26257.59028015  .00000044  00000-0  49043-4 0  9992
2 62790  88.9648  74.3812 0013903 266.2665  93.6897 13.51027668 84477

Volg QIANFAN-60 in realtime met AllMySat

Download on the App Store